Left ArrowRight Arrow

46.40834, -105.84056

Hourly Observations for June 19, 2024

Temp ( °F °C ) Dew Point ( °F °C ) Humidity (%) Winds ( mph kmh ) Pressure ( in mb ) Visibility ( mi km ) Precip ( " mm )
12:53 am 00:53 Clear 42 5.6 40 4.4 92 92 S 6 9 30.22 1024 10 16 0.00 0.00
1:53 am 01:53 Clear 39 3.9 39 3.9 100 100 SE 6 9 30.23 1024 10 16 0.00 0.00
2:53 am 02:53 Clear 38 3.3 38 3.3 100 100 SSE 7 11 30.22 1023 10 16 0.00 0.00
3:53 am 03:53 Clear 38 3.3 37 2.8 97 97 SSE 7 11 30.21 1023 10 16 0.00 0.00
4:53 am 04:53 Clear 37 2.8 37 2.8 100 100 SE 6 9 30.22 1023 10 16 0.00 0.00
5:53 am 05:53 Sunny 37 2.8 37 2.8 100 100 S 7 11 30.24 1024 10 16 0.00 0.00
6:53 am 06:53 Sunny 41 5 40 4.4 96 96 SE 7 11 30.24 1024 10 16 0.00 0.00
7:53 am 07:53 Sunny 45 7.2 42 5.6 90 90 SE 12 19 30.25 1024 10 16 0.00 0.00
8:53 am 08:53 Sunny 50 10 43 6.1 77 77 SE 9 15 30.23 1024 10 16 0.00 0.00
9:53 am 09:53 Sunny 56 13.3 42 5.6 60 60 SSE 12 19 30.21 1023 10 16 0.00 0.00
10:53 am 10:53 Sunny 61 16.1 42 5.6 50 50 SSE 13 20 30.20 1023 10 16 0.00 0.00
11:53 am 11:53 Sunny 65 18.3 41 5 41 41 SE 13 20 30.17 1022 10 16 0.00 0.00
12:53 pm 12:53 Sunny 68 20 41 5 37 37 SE 14 22 30.15 1021 10 16 0.00 0.00
1:53 pm 13:53 Sunny 71 21.7 40 4.4 32 32 SE 13 20 30.12 1020 10 16 0.00 0.00
2:53 pm 14:53 Sunny 73 22.8 39 3.9 29 29 SSE 13 20 30.09 1019 10 16 0.00 0.00
3:53 pm 15:53 Mostly Cloudy 75 23.9 40 4.4 28 28 SSE 21 33 30.08 1019 10 16 0.00 0.00
4:53 pm 16:53 Sunny 73 22.8 43 6.1 34 34 SSE 16 26 30.09 1019 10 16 0.00 0.00
5:53 pm 17:53 Sunny 71 21.7 43 6.1 36 36 SE 12 19 30.08 1019 10 16 0.00 0.00
6:53 pm 18:53 Sunny 72 22.2 45 7.2 38 38 ESE 10 17 30.08 1019 10 16 0.00 0.00
7:53 pm 19:53 Sunny 70 21.1 45 7.2 41 41 SE 7 11 30.07 1018 10 16 0.00 0.00
8:53 pm 20:53 Sunny 66 18.9 45 7.2 47 47 E 5 7 30.09 1019 10 16 0.00 0.00
9:53 pm 21:53 Clear 63 17.2 45 7.2 52 52 E 7 11 30.11 1020 10 16 0.00 0.00
10:53 pm 22:53 Clear 61 16.1 47 8.3 60 60 ESE 12 19 30.11 1020 10 16 0.00 0.00
11:53 pm 23:53 Clear 60 15.6 48 8.9 64 64 SSE 8 13 30.12 1020 10 16 0.00 0.00

Powered by Vaisala Xweather